Time,TemperatureF,DewpointF,PressureIn,WindDirection,WindDirectionDegrees,WindSpeedMPH,WindSpeedGustMPH,Humidity,HourlyPrecipIn,Conditions,Clouds,dailyrainin,SolarRadiationWatts/m^2,SoftwareType,DateUTC
2013-02-10 00:01:00,19.0,16.0,-100.00,WSW,249,4.0,7.0,86,-99.99,,,-99.99,0.000000,,2013-02-10 07:01:00,
2013-02-10 00:11:00,19.0,16.0,-100.00,WSW,249,4.0,7.0,86,-99.99,,,-99.99,0.000000,,2013-02-10 07:11:00,
2013-02-10 00:42:00,18.0,15.0,-100.00,WSW,243,0.0,11.0,88,-99.99,,,-99.99,0.000000,,2013-02-10 07:42:00,
2013-02-10 00:52:00,18.0,15.0,-100.00,WSW,243,0.0,11.0,88,-99.99,,,-99.99,0.000000,,2013-02-10 07:52:00,
2013-02-10 01:01:00,18.0,15.0,-100.00,WSW,243,0.0,11.0,88,-99.99,,,-99.99,0.000000,,2013-02-10 08:01:00,
2013-02-10 01:11:00,18.0,15.0,-100.00,WSW,243,0.0,11.0,88,-99.99,,,-99.99,0.000000,,2013-02-10 08:11:00,
2013-02-10 01:43:00,18.0,15.0,-100.00,WSW,256,0.0,0.0,87,-99.99,,,-99.99,0.000000,,2013-02-10 08:43:00,
2013-02-10 01:52:00,18.0,15.0,-100.00,WSW,256,0.0,0.0,87,-99.99,,,-99.99,0.000000,,2013-02-10 08:52:00,
2013-02-10 02:02:00,18.0,15.0,-100.00,WSW,256,0.0,0.0,87,-99.99,,,-99.99,0.000000,,2013-02-10 09:02:00,
2013-02-10 02:11:00,18.0,15.0,-100.00,WSW,256,0.0,0.0,87,-99.99,,,-99.99,0.000000,,2013-02-10 09:11:00,
2013-02-10 02:42:00,17.0,14.0,-100.00,SW,235,0.0,0.0,87,-99.99,,,-99.99,0.000000,,2013-02-10 09:42:00,
2013-02-10 02:52:00,17.0,14.0,-100.00,SW,235,0.0,0.0,87,-99.99,,,-99.99,0.000000,,2013-02-10 09:52:00,
2013-02-10 03:01:00,17.0,14.0,-100.00,SW,235,0.0,0.0,87,-99.99,,,-99.99,0.000000,,2013-02-10 10:01:00,
2013-02-10 03:11:00,17.0,14.0,-100.00,SW,235,0.0,0.0,87,-99.99,,,-99.99,0.000000,,2013-02-10 10:11:00,
2013-02-10 03:42:00,16.0,13.0,-100.00,WSW,253,0.0,0.0,86,-99.99,,,-99.99,0.000000,,2013-02-10 10:42:00,
2013-02-10 03:52:00,16.0,13.0,-100.00,WSW,253,0.0,0.0,86,-99.99,,,-99.99,0.000000,,2013-02-10 10:52:00,
2013-02-10 04:01:00,16.0,13.0,-100.00,WSW,253,0.0,0.0,86,-99.99,,,-99.99,0.000000,,2013-02-10 11:01:00,
2013-02-10 04:11:00,16.0,13.0,-100.00,WSW,253,0.0,0.0,86,-99.99,,,-99.99,0.000000,,2013-02-10 11:11:00,
2013-02-10 04:42:00,15.0,12.0,-100.00,WSW,241,7.0,16.0,86,-99.99,,,-99.99,0.000000,,2013-02-10 11:42:00,
2013-02-10 04:52:00,15.0,12.0,-100.00,WSW,241,7.0,16.0,86,-99.99,,,-99.99,0.000000,,2013-02-10 11:52:00,
2013-02-10 05:01:00,15.0,12.0,-100.00,WSW,241,7.0,16.0,86,-99.99,,,-99.99,0.000000,,2013-02-10 12:01:00,
2013-02-10 05:12:00,15.0,12.0,-100.00,WSW,241,7.0,16.0,86,-99.99,,,-99.99,0.000000,,2013-02-10 12:12:00,
2013-02-10 07:42:00,15.0,11.0,-100.00,ENE,75,0.0,0.0,85,-99.99,,,-99.99,0.000000,,2013-02-10 14:42:00,
2013-02-10 07:52:00,15.0,11.0,-100.00,ENE,75,0.0,0.0,85,-99.99,,,-99.99,0.000000,,2013-02-10 14:52:00,
2013-02-10 08:01:00,15.0,11.0,-100.00,ENE,75,0.0,0.0,85,-99.99,,,-99.99,0.000000,,2013-02-10 15:01:00,
2013-02-10 08:11:00,15.0,11.0,-100.00,ENE,75,0.0,0.0,85,-99.99,,,-99.99,0.000000,,2013-02-10 15:11:00,
2013-02-10 08:42:00,15.0,11.0,-100.00,WSW,245,0.0,0.0,85,-99.99,,,-99.99,7.000000,,2013-02-10 15:42:00,
2013-02-10 08:52:00,15.0,11.0,-100.00,WSW,245,0.0,0.0,85,-99.99,,,-99.99,7.000000,,2013-02-10 15:52:00,
2013-02-10 09:01:00,15.0,11.0,-100.00,WSW,245,0.0,0.0,85,-99.99,,,-99.99,7.000000,,2013-02-10 16:01:00,
2013-02-10 09:11:00,15.0,11.0,-100.00,WSW,245,0.0,0.0,85,-99.99,,,-99.99,7.000000,,2013-02-10 16:11:00,
2013-02-10 09:32:00,15.0,11.0,-100.00,WSW,252,0.0,0.0,83,-99.99,,,-99.99,19.000000,,2013-02-10 16:32:00,
2013-02-10 09:42:00,15.0,11.0,-100.00,WSW,252,0.0,0.0,83,-99.99,,,-99.99,19.000000,,2013-02-10 16:42:00,
2013-02-10 09:52:00,15.0,11.0,-100.00,WSW,252,0.0,0.0,83,-99.99,,,-99.99,19.000000,,2013-02-10 16:52:00,
2013-02-10 10:01:00,15.0,11.0,-100.00,WSW,252,0.0,0.0,83,-99.99,,,-99.99,19.000000,,2013-02-10 17:01:00,
2013-02-10 10:11:00,15.0,11.0,-100.00,WSW,252,0.0,0.0,83,-99.99,,,-99.99,19.000000,,2013-02-10 17:11:00,
2013-02-10 10:42:00,16.0,11.0,-100.00,WSW,254,5.0,10.0,81,-99.99,,,-99.99,59.000000,,2013-02-10 17:42:00,
2013-02-10 10:52:00,16.0,11.0,-100.00,WSW,254,5.0,10.0,81,-99.99,,,-99.99,59.000000,,2013-02-10 17:52:00,
2013-02-10 11:01:00,16.0,11.0,-100.00,WSW,254,5.0,10.0,81,-99.99,,,-99.99,59.000000,,2013-02-10 18:01:00,
2013-02-10 11:11:00,16.0,11.0,-100.00,WSW,254,5.0,10.0,81,-99.99,,,-99.99,59.000000,,2013-02-10 18:11:00,
2013-02-10 11:42:00,16.0,10.0,-100.00,West,275,3.0,17.0,78,-99.99,,,-99.99,96.000000,,2013-02-10 18:42:00,
2013-02-10 11:52:00,16.0,10.0,-100.00,West,275,3.0,17.0,78,-99.99,,,-99.99,96.000000,,2013-02-10 18:52:00,
2013-02-10 12:01:00,16.0,10.0,-100.00,West,275,3.0,17.0,78,-99.99,,,-99.99,96.000000,,2013-02-10 19:01:00,
2013-02-10 12:11:00,16.0,10.0,-100.00,West,275,3.0,17.0,78,-99.99,,,-99.99,96.000000,,2013-02-10 19:11:00,
2013-02-10 12:43:00,20.0,13.0,-100.00,West,265,6.0,17.0,74,-99.99,,,-99.99,163.000000,,2013-02-10 19:43:00,
2013-02-10 12:52:00,20.0,13.0,-100.00,West,265,6.0,17.0,74,-99.99,,,-99.99,163.000000,,2013-02-10 19:52:00,
2013-02-10 13:01:00,20.0,13.0,-100.00,West,265,6.0,17.0,74,-99.99,,,-99.99,163.000000,,2013-02-10 20:01:00,
2013-02-10 13:11:00,20.0,13.0,-100.00,West,265,6.0,17.0,74,-99.99,,,-99.99,163.000000,,2013-02-10 20:11:00,
2013-02-10 13:42:00,21.0,12.0,-100.00,West,271,6.0,18.0,68,-99.99,,,-99.99,198.000000,,2013-02-10 20:42:00,
2013-02-10 13:52:00,21.0,12.0,-100.00,West,271,6.0,18.0,68,-99.99,,,-99.99,198.000000,,2013-02-10 20:52:00,
2013-02-10 14:02:00,21.0,12.0,-100.00,West,271,6.0,18.0,68,-99.99,,,-99.99,198.000000,,2013-02-10 21:02:00,
2013-02-10 14:11:00,21.0,12.0,-100.00,West,271,6.0,18.0,68,-99.99,,,-99.99,198.000000,,2013-02-10 21:11:00,
2013-02-10 14:42:00,20.0,8.0,-100.00,West,274,1.0,21.0,60,-99.99,,,-99.99,273.000000,,2013-02-10 21:42:00,
2013-02-10 14:52:00,20.0,8.0,-100.00,West,274,1.0,21.0,60,-99.99,,,-99.99,273.000000,,2013-02-10 21:52:00,
2013-02-10 15:01:00,20.0,8.0,-100.00,West,274,1.0,21.0,60,-99.99,,,-99.99,273.000000,,2013-02-10 22:01:00,
2013-02-10 15:11:00,20.0,8.0,-100.00,West,274,1.0,21.0,60,-99.99,,,-99.99,273.000000,,2013-02-10 22:11:00,
2013-02-10 15:42:00,17.0,6.0,-100.00,WSW,257,6.0,11.0,60,-99.99,,,-99.99,432.000000,,2013-02-10 22:42:00,
2013-02-10 15:52:00,17.0,6.0,-100.00,WSW,257,6.0,11.0,60,-99.99,,,-99.99,432.000000,,2013-02-10 22:52:00,
2013-02-10 16:01:00,17.0,6.0,-100.00,WSW,257,6.0,11.0,60,-99.99,,,-99.99,432.000000,,2013-02-10 23:01:00,
2013-02-10 16:11:00,17.0,6.0,-100.00,WSW,257,6.0,11.0,60,-99.99,,,-99.99,432.000000,,2013-02-10 23:11:00,
2013-02-10 16:32:00,16.0,4.0,-100.00,WSW,256,6.0,15.0,58,-99.99,,,-99.99,277.000000,,2013-02-10 23:32:00,
2013-02-10 16:42:00,16.0,4.0,-100.00,WSW,256,6.0,15.0,58,-99.99,,,-99.99,277.000000,,2013-02-10 23:42:00,
2013-02-10 16:52:00,16.0,4.0,-100.00,WSW,256,6.0,15.0,58,-99.99,,,-99.99,277.000000,,2013-02-10 23:52:00,
2013-02-10 17:01:00,16.0,4.0,-100.00,WSW,256,6.0,15.0,58,-99.99,,,-99.99,277.000000,,2013-02-11 00:01:00,
2013-02-10 17:11:00,16.0,4.0,-100.00,WSW,256,6.0,15.0,58,-99.99,,,-99.99,277.000000,,2013-02-11 00:11:00,
2013-02-10 17:42:00,15.0,2.0,-100.00,WSW,246,7.0,17.0,56,-99.99,,,-99.99,64.000000,,2013-02-11 00:42:00,
2013-02-10 17:52:00,15.0,2.0,-100.00,WSW,246,7.0,17.0,56,-99.99,,,-99.99,64.000000,,2013-02-11 00:52:00,
2013-02-10 18:01:00,15.0,2.0,-100.00,WSW,246,7.0,17.0,56,-99.99,,,-99.99,64.000000,,2013-02-11 01:01:00,
2013-02-10 18:11:00,15.0,2.0,-100.00,WSW,246,7.0,17.0,56,-99.99,,,-99.99,64.000000,,2013-02-11 01:11:00,
2013-02-10 18:42:00,14.0,3.0,-100.00,WSW,257,0.0,0.0,60,-99.99,,,-99.99,6.000000,,2013-02-11 01:42:00,
2013-02-10 18:52:00,14.0,3.0,-100.00,WSW,257,0.0,0.0,60,-99.99,,,-99.99,6.000000,,2013-02-11 01:52:00,
2013-02-10 19:01:00,14.0,3.0,-100.00,WSW,257,0.0,0.0,60,-99.99,,,-99.99,6.000000,,2013-02-11 02:01:00,
2013-02-10 19:11:00,14.0,3.0,-100.00,WSW,257,0.0,0.0,60,-99.99,,,-99.99,6.000000,,2013-02-11 02:11:00,
2013-02-10 19:42:00,13.0,1.0,-100.00,West,265,0.0,0.0,58,-99.99,,,-99.99,0.000000,,2013-02-11 02:42:00,
2013-02-10 19:52:00,13.0,1.0,-100.00,West,265,0.0,0.0,58,-99.99,,,-99.99,0.000000,,2013-02-11 02:52:00,
2013-02-10 20:01:00,13.0,1.0,-100.00,West,265,0.0,0.0,58,-99.99,,,-99.99,0.000000,,2013-02-11 03:01:00,
2013-02-10 20:11:00,13.0,1.0,-100.00,West,265,0.0,0.0,58,-99.99,,,-99.99,0.000000,,2013-02-11 03:11:00,
2013-02-10 20:32:00,11.0,0.0,-100.00,West,260,0.0,0.0,60,-99.99,,,-99.99,0.000000,,2013-02-11 03:32:00,
2013-02-10 20:42:00,11.0,0.0,-100.00,West,260,0.0,0.0,60,-99.99,,,-99.99,0.000000,,2013-02-11 03:42:00,
2013-02-10 20:52:00,11.0,0.0,-100.00,West,260,0.0,0.0,60,-99.99,,,-99.99,0.000000,,2013-02-11 03:52:00,
2013-02-10 21:01:00,11.0,0.0,-100.00,West,260,0.0,0.0,60,-99.99,,,-99.99,0.000000,,2013-02-11 04:01:00,
2013-02-10 21:11:00,11.0,0.0,-100.00,West,260,0.0,0.0,60,-99.99,,,-99.99,0.000000,,2013-02-11 04:11:00,
2013-02-10 21:32:00,11.0,-2.0,-100.00,West,264,0.0,0.0,54,-99.99,,,-99.99,0.000000,,2013-02-11 04:32:00,
2013-02-10 21:42:00,11.0,-2.0,-100.00,West,264,0.0,0.0,54,-99.99,,,-99.99,0.000000,,2013-02-11 04:42:00,
2013-02-10 21:52:00,11.0,-2.0,-100.00,West,264,0.0,0.0,54,-99.99,,,-99.99,0.000000,,2013-02-11 04:52:00,
2013-02-10 22:01:00,11.0,-2.0,-100.00,West,264,0.0,0.0,54,-99.99,,,-99.99,0.000000,,2013-02-11 05:01:00,
2013-02-10 22:11:00,11.0,-2.0,-100.00,West,264,0.0,0.0,54,-99.99,,,-99.99,0.000000,,2013-02-11 05:11:00,
2013-02-10 22:42:00,8.0,-3.0,-100.00,West,280,3.0,7.0,59,-99.99,,,-99.99,0.000000,,2013-02-11 05:42:00,
2013-02-10 22:52:00,8.0,-3.0,-100.00,West,280,3.0,7.0,59,-99.99,,,-99.99,0.000000,,2013-02-11 05:52:00,
2013-02-10 23:01:00,8.0,-3.0,-100.00,West,280,3.0,7.0,59,-99.99,,,-99.99,0.000000,,2013-02-11 06:01:00,
2013-02-10 23:11:00,8.0,-3.0,-100.00,West,280,3.0,7.0,59,-99.99,,,-99.99,0.000000,,2013-02-11 06:11:00,
2013-02-10 23:42:00,7.0,-5.0,-100.00,WNW,300,3.0,7.0,56,-99.99,,,-99.99,0.000000,,2013-02-11 06:42:00,
2013-02-10 23:52:00,7.0,-5.0,-100.00,WNW,300,3.0,7.0,56,-99.99,,,-99.99,0.000000,,2013-02-11 06:52:00,